Regional Weather Roundup
Issued by NWS

Home | Current Version | Previous Version | Text Only | Print | Product List | Glossary Off
Versions: 1 2 3 4 5 6 7 8 9 10 11 12 13 14 15 16 17 18 19 20 21 22 23 24 25 26 27 28 29 30 31 32 33 34 35 36 37 38 39 40 41 42 43 44 45 46 47 48 49 50

461
ASUS44 KLIX 022205
RWRLA
LOUISIANA WEATHER ROUNDUP
NATIONAL WEATHER SERVICE NEW ORLEANS LA
400 PM CST MON MAR 02 2015

NOTE: "FAIR" INDICATES FEW OR NO CLOUDS BELOW 12,000 FEET WITH NO
      SIGNIFICANT WEATHER AND/OR OBSTRUCTIONS TO VISIBILITY.
      SKY/WX - SKY CONDITION AND SIGNIFICANT WEATHER.
      TMP - AIR TEMPERATURE.    DP   - DEWPOINT TEMPERATURE.
      RH  - RELATIVE HUMIDITY.  PRES - PRESSURE.
      HX  - HEAT INDEX.         WCI  - WIND CHILL INDEX.

*  THESE STATIONS ARE NOT NWS OR FAA STATIONS AND ARE NOT UNDER
   NWS QUALITY CONTROL.

LAZ040-048-061>063-065-066-069-022300-
SOUTHEAST LOUISIANA

CITY           SKY/WX    TMP DP  RH WIND       PRES   REMARKS
N.O. AUDUBON     N/A     74  73  96 MISG        N/A
N.O. INTL ARPT PTSUNNY   75  68  78 E5        30.18S
N.O. LAKEFRONT PTSUNNY   69  63  81 E8        30.20S
SLIDELL        CLOUDY    72  68  87 E5        30.19F
BATON ROUGE    CLOUDY    64  63  96 N6        30.20S FOG
BOOTHVILLE     MOSUNNY   76  69  79 S9        30.20F
BELLE CHASSE   LGT RAIN  74  67  78 NE7       30.18S
BOGALUSA*        N/A     66  63  89 CALM      30.22F
GALLIANO*      PTCLDY    80  68  67 S10       30.18F
NEW ROADS*     RAIN      52  51  97 NW6       30.22F
GONZALES*      CLOUDY    78  71  80 NW6       30.16F
HAMMOND*       NOT AVBL
HOUMA*         PTSUNNY   77  72  83 S9        30.17F
PORT FOURCHON* CLEAR     75  70  83 S8        30.22S

$$

LAZ041-044-053-054-022300-
SOUTHWEST LOUISIANA

CITY           SKY/WX    TMP DP  RH WIND       PRES   REMARKS
LAKE CHARLES   CLOUDY    58  56  93 NE10      30.20S
LAFAYETTE      CLOUDY    58  56  93 N7        30.20F
PATTERSON      MOSUNNY   79  70  73 SW13      30.17R
SALT POINT       N/A     65  65 100 CALM      30.17S
NEW IBERIA     CLOUDY    63  60  90 N6        30.20F
CHENAULT AIRPK CLOUDY    57  55  94 VRB5      30.21

$$

LAZ027-028-022300-
CENTRAL LOUISIANA

CITY           SKY/WX    TMP DP  RH WIND       PRES   REMARKS
FORT POLK      CLOUDY    51  50  96 NE6       30.22F FOG
ALEXANDRIA INT CLOUDY    48  47  96 E6        30.24S FOG
ALEXANDRIA     CLOUDY    48  46  93 VRB3      30.25S

$$

LAZ001-002-022300-
NORTHWEST LOUISIANA

CITY           SKY/WX    TMP DP  RH WIND       PRES   REMARKS
SHREVEPORT     DRIZZLE   43  42  97 NE6       30.25F FOG
BARKSDALE AFB  DRIZZLE   42  42  99 NE7       30.25F FOG
DTN SHREVEPORT CLOUDY    42  39  89 E7        30.26F

$$

LAZ014-016-022300-
NORTHEAST LOUISIANA

CITY           SKY/WX    TMP DP  RH WIND       PRES   REMARKS
MONROE         CLOUDY    42  40  92 NE7       30.30F
TALLULAH       LGT RAIN  45  43  93 N8        30.27F

$$




USA.gov is the U.S. government's official web portal to all federal, state and local government web resources and services.